FW5207 Weather Reports


Display with metric or nautical units.
time (UTC)temp
F
wind
direction
speed
MPH
gust
MPH
rain 1hr
in
rain 24hr
in
rain mn
in
humidity
%
barometer
mb
20260508183108 53 327 3.0 9.0 0.00 0.95 0.00 73 1001.2
20260508181602 53 10 2.0 9.0 0.00 0.95 0.00 73 1001.4
20260508180047 54 346 4.0 9.0 0.00 0.95 0.00 74 1001.4
20260508174550 54 34 5.0 11.0 0.00 0.96 0.00 72 1001.3
20260508173044 54 30 2.0 10.0 0.00 0.96 0.00 73 1001.2
20260508171542 53 30 3.0 9.0 0.00 0.96 0.00 77 1001.7
20260508170039 52 342 3.0 8.0 0.00 0.96 0.00 78 1001.9
20260508164539 51 20 2.0 6.0 0.00 0.96 0.00 78 1001.8
20260508163035 50 20 2.0 6.0 0.00 0.96 0.00 80 1001.7
20260508161535 50 336 3.0 8.0 0.00 0.96 0.00 79 1001.7
20260508160034 50 4 1.0 8.0 0.00 0.96 0.00 78 1001.9
20260508154551 50 20 3.0 8.0 0.00 0.96 0.00 78 1001.7
20260508153032 50 338 3.0 7.0 0.00 0.96 0.00 81 1001.8
20260508151536 50 30 3.0 8.0 0.00 0.96 0.00 82 1001.6
20260508150036 50 341 4.0 10.0 0.00 0.96 0.00 82 1001.8
20260508144531 50 15 4.0 11.0 0.00 0.96 0.00 83 1001.9
20260508143030 50 333 3.0 11.0 0.00 0.96 0.00 84 1001.8
20260508141533 50 346 3.0 9.0 0.00 0.96 0.00 85 1002.3
20260508140028 50 20 3.0 10.0 0.00 0.96 0.00 86 1002.5
20260508134529 50 347 3.0 6.0 0.00 0.96 0.00 87 1002.6
20260508133043 50 2 3.0 8.0 0.00 0.96 0.00 88 1002.7
20260508131522 49 350 3.0 9.0 0.00 0.96 0.00 90 1002.6
20260508130022 49 327 4.0 11.0 0.00 0.96 0.00 91 1002.3
20260508124518 48 20 3.0 8.0 0.00 0.97 0.00 94 1002.2
20260508123026 47 30 1.0 5.0 0.00 0.97 0.00 97 1002.4
20260508121518 46 342 1.0 4.0 0.00 0.97 0.00 97 1002.2
20260508120014 45 351 2.0 5.0 0.00 0.97 0.00 99 1002.6
20260508114513 44 344 3.0 5.0 0.00 0.97 0.00 99 1002.8
20260508113018 42 349 2.0 4.0 0.00 0.97 0.00 99 1002.4
20260508111512 41 352 2.0 4.0 0.00 0.97 0.00 99 1002.6
20260508110012 41 354 1.0 3.0 0.00 0.97 0.00 99 1002.7
20260508104511 41 354 0.0 1.0 0.00 0.97 0.00 99 1003.0
20260508103013 40 354 0.0 0.0 0.00 0.97 0.00 99 1003.0
20260508101510 40 354 0.0 0.0 0.00 0.97 0.00 99 1002.9
20260508100011 40 354 0.0 0.0 0.00 0.97 0.00 99 1002.9
20260508094507 40 354 0.0 0.0 0.00 0.99 0.00 99 1002.4
20260508093010 40 354 0.0 0.0 0.00 0.99 0.00 99 1002.4
20260508091507 40 354 0.0 0.0 0.00 0.99 0.00 99 1002.3
20260508090006 40 354 0.0 0.0 0.00 0.99 0.00 99 1002.5
20260508084505 40 354 0.0 0.0 0.00 1.06 0.00 99 1002.6
20260508083005 40 354 2.0 4.0 0.00 1.06 0.00 99 1002.1
20260508081502 41 358 0.0 3.0 0.00 1.06 0.00 99 1001.8
20260508080100 41 358 0.0 2.0 0.00 1.06 0.00 99 1001.8
20260508074600 41 360 1.0 4.0 0.00 1.07 0.00 99 1002.0
20260508073110 41 356 1.0 4.0 0.00 1.07 0.00 99 1002.0
20260508071602 41 351 2.0 5.0 0.00 1.07 0.00 99 1002.0
20260508070053 42 14 0.0 2.0 0.00 1.07 0.00 98 1001.8
20260508064559 43 69 0.0 6.0 0.00 1.07 0.00 99 1001.7
20260508063054 44 356 0.0 3.0 0.00 1.07 0.00 99 1001.6
20260508061546 45 2 0.0 10.0 0.00 1.07 0.00 99 1001.8
20260508060059 46 20 2.0 8.0 0.00 1.07 0.00 99 1001.6
20260508054541 46 13 1.0 3.0 0.00 1.07 0.00 99 1001.5
20260508053039 45 10 0.0 0.0 0.00 1.07 0.00 99 1001.6
20260508051555 45 10 0.0 1.0 0.00 1.07 0.00 99 1001.2
20260508050038 46 10 0.0 1.0 0.00 1.07 0.00 99 1001.2
20260508044537 46 10 0.0 1.0 0.00 1.07 0.00 99 1001.5
20260508043033 46 10 0.0 3.0 0.00 1.07 0.00 99 1001.7
20260508041532 46 10 1.0 3.0 0.00 1.07 0.00 99 1001.6
20260508040029 46 9 1.0 3.0 0.00 1.07 0.00 99 1001.7
20260508034539 46 318 0.0 3.0 0.00 1.07 0.00 99 1001.9
20260508033023 47 318 0.0 1.0 0.00 1.07 0.00 99 1002.2
20260508031522 47 317 0.0 2.0 0.00 1.07 0.00 99 1002.0
20260508030020 47 317 1.0 2.0 0.00 1.07 0.00 99 1002.1
20260508024543 47 317 0.0 3.0 0.00 1.07 1.07 99 1002.0
20260508023017 47 315 1.0 4.0 0.00 1.07 1.07 98 1001.7
20260508021514 50 307 1.0 5.0 0.00 1.07 1.07 99 1001.8
20260508020013 50 285 0.0 4.0 0.00 1.07 1.07 99 1001.8
20260508014512 50 274 1.0 5.0 0.00 1.07 1.07 99 1001.9
20260508013014 50 294 1.0 4.0 0.00 1.07 1.07 99 1001.7
20260508011513 50 261 1.0 5.0 0.00 1.07 1.07 99 1001.7
20260508010012 51 186 2.0 7.0 0.00 1.07 1.07 99 1002.0
20260508004524 51 254 2.0 4.0 0.00 1.07 1.07 99 1001.9
20260508003009 51 229 1.0 6.0 0.00 1.07 1.07 99 1001.9
20260508001527 51 212 1.0 5.0 0.00 1.07 1.07 99 1002.1
20260508000009 51 230 2.0 5.0 0.00 1.07 1.07 99 1002.4
20260507234510 51 215 2.0 10.0 0.00 1.07 1.07 99 1002.2
20260507233008 51 156 3.0 8.0 0.00 1.07 1.07 99 1002.1
20260507231508 51 217 2.0 7.0 0.00 1.07 1.07 98 1002.4
20260507230008 51 188 4.0 9.0 0.00 1.07 1.07 98 1002.3
20260507224510 52 225 2.0 9.0 0.00 1.07 1.07 98 1002.7
20260507223006 52 190 3.0 11.0 0.00 1.07 1.07 99 1002.5
20260507221507 51 233 3.0 8.0 0.00 1.07 1.07 98 1002.9
20260507220005 51 237 3.0 9.0 0.01 1.07 1.07 99 1002.8
20260507214505 50 194 3.0 7.0 0.03 1.07 1.07 98 1002.8
20260507213005 50 265 3.0 10.0 0.09 1.07 1.07 98 1002.8
20260507211502 50 162 5.0 15.0 0.20 1.07 1.07 98 1001.7
20260507210111 50 136 7.0 13.0 0.27 1.06 1.06 98 1002.0
20260507204557 51 170 5.0 11.0 0.37 1.04 1.04 98 1003.0
20260507203117 52 164 5.0 15.0 0.46 0.98 0.98 98 1003.6
20260507201552 52 152 3.0 11.0 0.50 0.87 0.87 98 1003.9
20260507200050 51 149 4.0 9.0 0.49 0.80 0.80 97 1004.5
20260507194559 52 246 0.0 10.0 0.43 0.67 0.67 97 1004.8
20260507193045 52 204 3.0 10.0 0.34 0.50 0.50 98 1004.8
20260507191546 53 221 5.0 15.0 0.24 0.38 0.38 97 1004.8
20260507190053 53 182 7.0 16.0 0.19 0.31 0.31 97 1004.8
20260507184541 53 164 9.0 18.0 0.13 0.24 0.24 97 1004.9